Regional Weather Roundup
Issued by NWS

Home | Current Version | Previous Version | Text Only | Print | Product List | Glossary Off
Versions: 1 2 3 4 5 6 7 8 9 10 11 12 13 14 15 16 17 18 19 20 21 22 23 24 25 26 27

000
ASUS45 KSLC 221110
RWRUT

UTAH REGIONAL WEATHER ROUNDUP
NATIONAL WEATHER SERVICE SALT LAKE CITY UT
500 AM MDT TUE APR 22 2014

UTZ001>011-023>025-221200-

NORTHERN UTAH

CITY           SKY/WX    TMP DP  RH WIND       PRES   REMARKS
HILL AFB       CLOUDY    64  32  29 S15       29.83F
LOGAN          CLOUDY    53  39  59 SE6       29.84F
OGDEN          LGT RAIN  66  33  29 S10       29.81F
PROVO AIRPORT  CLOUDY    57  36  44 E9        29.88F
SALT LAKE CITY CLOUDY    68  29  23 S20       29.80F
VERNAL         PTCLDY    50  33  52 W7        29.95F
WENDOVER       CLOUDY    54  27  35 E5        29.79F
HEBER CITY     CLOUDY    48  34  57 CALM      29.92F
WEST JORDAN    CLEAR     63  37  39 SE17      29.84F

$$

UTZ012>022-026-027-221200-

SOUTHERN UTAH

CITY           SKY/WX    TMP DP  RH WIND       PRES   REMARKS
BRYCE CANYON   CLOUDY    39  29  67 SW3       30.10F
CEDAR CITY     MOCLDY    56  27  32 SW8       29.94F
MILFORD        MOCLDY    57  29  34 SW14      29.91S
MOAB/CYNLANDS  CLEAR     58  29  33 SE10      29.92F
PRICE          CLOUDY    50  32  50 NE3       29.98F
ST GEORGE      CLOUDY    70  28  21 SE9       29.87S

$$

REGIONAL REPORTS     COLORADO/ARIZONA

CITY           SKY/WX    TMP DP  RH WIND       PRES   REMARKS
CRAIG, CO      MOCLDY    37  31  78 VRB3      30.05F
GRAND JUNCTION MOCLDY    56  29  35 E22       29.98F
RIFLE          CLEAR     41  30  65 CALM      30.06F
MONTROSE       CLEAR     49  29  46 SE10      30.08F
CORTEZ         CLEAR     38  29  70 VRB5      30.10F WCI  34
PAGE, AZ       PTCLDY    61  31  32 SE8       29.94F
GRAND CANYON   PTCLDY    33  26  75 CALM      30.11F
KINGMAN        CLOUDY    70  32  24 S12       29.92F
FLAGSTAFF      PTCLDY    35  26  69 CALM      30.14F

$$

REGIONAL REPORTS    NEVADA/IDAHO/WYOMING

CITY           SKY/WX    TMP DP  RH WIND       PRES   REMARKS
LAS VEGAS, NV  CLOUDY    76  25  15 S16       29.75F
ELY            CLOUDY    58  22  24 SE18G25   29.88F
ELKO           MOCLDY    45  25  45 S7        29.78F
POCATELLO, ID  MOCLDY    59  38  45 SE14      29.82F
BURLEY         CLOUDY    52  40  63 CALM      29.77F
EVANSTON, WY     N/A     50  27  40 CALM      29.97F
ROCK SPRINGS   MOCLDY    51  28  41 S9        29.98F

$$



USA.gov is the U.S. government's official web portal to all federal, state and local government web resources and services.